MDT,Max TemperatureF,Mean TemperatureF,Min TemperatureF,Max Dew PointF,MeanDew PointF,Min DewpointF,Max Humidity, Mean Humidity, Min Humidity, Max Sea Level PressureIn, Mean Sea Level PressureIn, Min Sea Level PressureIn, Max VisibilityMiles, Mean VisibilityMiles, Min VisibilityMiles, Max Wind SpeedMPH, Mean Wind SpeedMPH, Max Gust SpeedMPH,PrecipitationIn, CloudCover, Events, WindDirDegrees
2013-3-1,40,33,25,26,24,20,92,73,54,30.57,30.52,30.47,10,10,4,12,2,12,T,6,Snow,189
2013-3-2,52,36,20,28,23,17,88,61,33,30.61,30.44,30.20,10,10,10,10,3,15,0.00,0,,189
2013-3-3,50,40,29,36,29,25,92,67,42,30.18,29.96,29.84,10,10,9,23,4,32,0.06,5,Rain,183
2013-3-4,43,33,23,37,29,12,100,69,38,30.29,29.92,29.78,10,8,1,35,9,41,0.05,6,Rain,7
2013-3-5,46,31,16,18,12,4,73,45,17,30.51,30.33,30.19,10,10,10,12,3,14,0.00,0,,155
2013-3-6,60,41,22,25,20,16,84,53,21,30.21,30.01,29.84,10,10,10,21,6,26,0.00,0,,205
2013-3-7,62,47,31,25,21,11,72,43,14,29.96,29.87,29.81,10,10,10,22,5,28,0.00,0,,261
2013-3-8,55,45,34,36,27,20,79,54,28,29.84,29.74,29.62,10,10,10,31,6,40,0.01,5,Rain,264
2013-3-9,39,35,30,36,30,16,100,74,47,30.15,29.79,29.60,10,7,1,30,12,38,0.01,6,Rain-Snow,285
2013-3-10,47,34,20,23,19,15,81,55,28,30.34,30.26,30.19,10,10,10,9,4,10,0.00,1,,334
2013-3-11,51,38,24,26,23,20,88,60,32,30.30,30.19,30.07,10,10,10,22,7,30,0.00,3,,251
2013-3-12,55,43,31,29,27,25,85,58,30,30.30,30.21,30.13,10,10,10,16,4,24,0.00,3,,270
2013-3-13,62,45,27,27,25,20,85,53,20,30.43,30.34,30.26,10,10,10,13,3,16,0.00,0,,204
2013-3-14,67,48,28,30,25,20,78,47,16,30.44,30.31,30.20,10,10,10,20,4,24,0.00,0,,215
2013-3-15,68,50,32,29,27,22,75,46,17,30.22,30.06,29.91,10,10,10,28,6,33,0.00,0,,265
2013-3-16,58,48,37,31,30,28,70,53,36,29.92,29.84,29.75,10,10,10,32,6,46,T,4,Rain-Thunderstorm,169
2013-3-17,54,43,31,37,26,10,85,54,22,29.88,29.76,29.65,10,10,5,43,11,60,0.08,4,Rain,290
2013-3-18,52,40,28,21,14,9,69,44,19,30.02,29.95,29.89,10,10,10,31,8,38,0.00,4,,262
2013-3-19,53,41,29,22,8,-10,63,35,7,30.25,30.14,30.00,10,10,3,17,4,23,0.00,0,,306
2013-3-20,51,37,22,31,15,8,68,45,21,30.25,30.09,29.86,10,10,10,17,5,21,0.00,3,,107
2013-3-21,47,39,30,36,31,21,92,65,37,29.95,29.77,29.69,10,8,1,33,6,40,0.34,7,Rain-Snow-Thunderstorm,280
2013-3-22,49,37,25,24,19,10,85,53,21,29.92,29.80,29.62,10,10,10,31,12,41,0.00,2,,292
2013-3-23,34,27,20,16,12,8,68,54,39,30.23,30.01,29.82,10,9,2,29,15,35,T,5,Snow,285
2013-3-24,34,26,18,18,12,6,84,58,32,30.30,30.19,30.10,10,8,1,26,8,36,T,5,Snow,261
2013-3-25,44,29,13,11,4,-12,67,39,11,30.39,30.29,30.19,10,10,10,13,4,17,0.00,0,,208
2013-3-26,62,42,22,22,15,11,68,43,18,30.22,30.04,29.85,10,10,10,26,6,35,0.00,3,,248
2013-3-27,64,48,31,27,21,11,72,43,13,30.04,29.95,29.88,10,10,10,25,7,32,0.00,2,,254
2013-3-28,65,48,31,26,21,17,66,41,16,30.09,30.00,29.92,10,10,10,17,5,18,0.00,4,,224
2013-3-29,66,53,40,34,27,24,62,43,23,30.13,30.07,30.01,10,10,10,28,7,32,0.00,4,,289
2013-3-30,68,50,31,31,26,16,82,48,14,30.19,30.09,29.98,10,10,5,32,7,38,0.00,2,,298
2013-3-31,67,48,29,26,21,9,78,45,11,30.14,30.03,29.91,10,10,10,20,6,26,0.00,0,,242